Location: Newark
(25.5428°S, 54.5819°W)
Time: 18:05:36
(UTC+00:00)

Envisat - Pass Details

Date: 24 July 2019
Orbit: 764 x 766 km, 98.1° (Epoch: 24 August)

Event Time Altitude Azimuth Distance (km) Brightness Sun altitude
Exits shadow 21:38:29 - 141° (SE) 2,933 5.5 -7.0°
Reaches altitude 10° 21:40:31 10° 128° (SE) 2,320 4.9 -7.5°
Maximum altitude 21:44:02 19° 84° (E) 1,788 4.4 -8.2°
Drops below altitude 10° 21:47:32 10° 40° (NE) 2,301 5.3 -9.0°
Sets 21:50:29 0° 22° (NNE) 3,218 6.2 -9.6°
